Location: Santa Teresa Spring
(37.2333°N, 121.7000°W)
Time: 03:20:07
(UTC-07:00)

ISS - Visible Passes

Search period start: 24 October 2014 00:00
Search period end: 02 November 2014 23:00
Orbit: 413 x 416 km, 51.6° (Epoch: 24 October)

Date Brightness Start Highest point End Pass type
(mag) Time Alt. Az. Time Alt. Az. Time Alt. Az.
24 Oct -3.2 19:46:37 10° NW 19:49:50 57° NNE 19:49:50 57° NNE visible
25 Oct -2.4 18:57:36 10° NNW 19:00:40 33° NNE 19:03:07 14° E visible
25 Oct -0.5 20:34:32 10° WNW 20:36:01 19° W 20:36:01 19° W visible
26 Oct -2.2 19:44:55 10° WNW 19:48:07 44° SW 19:49:29 27° S visible
27 Oct -3.3 18:55:33 10° NW 18:58:54 88° SW 19:02:13 10° SE visible
28 Oct -0.3 19:44:01 10° W 19:45:56 15° SW 19:47:51 10° SSW visible
29 Oct -1.0 18:53:53 10° WNW 18:56:45 27° SW 18:59:36 10° SSE visible
